The Dalles, WA

8:41 PM PDT on May 20, 2018 (GMT -0700)
Columbia Gorge Regional-The Dalles

Weather History for KDLS - September, 2013

Change the Weather History Date:

Monday, September 2, 2013

  Actual Average Record
Temperature  
Mean Temperature 79 °F -  
Max Temperature 90 °F 84 °F 104 °F (1950)
Min Temperature 69 °F 56 °F 44 °F (1973)
Cooling Degree Days 14    
Growing Degree Days 29 (Base 50)    
Moisture  
Dew Point 53 °F    
Average Humidity 43    
Maximum Humidity 57    
Minimum Humidity 28    
Precipitation  
Precipitation 0.00 in - - ()
Sea Level Pressure  
Sea Level Pressure 29.81 in    
Wind  
Wind Speed 14 mph (NW)    
Max Wind Speed 23 mph    
Max Gust Speed 30 mph    
Visibility 10 miles    
Events      
Averages and records for this station are not official NWS values.
T = Trace of Precipitation, MM = Missing Value Source: NWS Daily Summary

Daily Weather History Graph

Daily Weather History Graph

Search for Another Location

Airport or City:

Astronomy

Sep. 02, 2013 Rise Set
Actual Time 6:27 AM PDT 7:40 PM PDT
Civil Twilight 5:56 AM PDT 8:10 PM PDT
Nautical Twilight 5:20 AM PDT 8:47 PM PDT
Astronomical Twilight 4:41 AM PDT 9:25 PM PDT
Moon 3:44 AM PDT (9/2) 5:59 PM PDT (9/2)
Length of Visible Light 14h 13m
Length of Day
13h 12m
Waning Crescent, 7% of the Moon is Illuminated
Sep 2
Waning Crescent
Sep 5
New
Sep 12
First Quarter
Sep 19
Full
Sep 26
Last Quarter

Hourly Weather History & Observations

Time (PDT) Temp. Heat Index Dew Point Humidity Pressure Visibility Wind Dir Wind Speed Gust Speed Precip Events Conditions
12:53 AM 75.0 °F - 53.1 °F 46% 29.78 in 10.0 mi NW 17.3 mph 26.5 mph N/A   Clear
1:53 AM 72.0 °F - 54.0 °F 53% 29.79 in 10.0 mi NW 15.0 mph - N/A   Clear
2:53 AM 72.0 °F - 52.0 °F 49% 29.81 in 10.0 mi NW 15.0 mph 20.7 mph N/A   Clear
3:53 AM 72.0 °F - 52.0 °F 49% 29.81 in 10.0 mi WNW 12.7 mph 29.9 mph N/A   Clear
4:53 AM 71.1 °F - 52.0 °F 51% 29.82 in 10.0 mi NW 9.2 mph 24.2 mph N/A   Clear
5:53 AM 70.0 °F - 52.0 °F 53% 29.82 in 10.0 mi WNW 8.1 mph - N/A   Clear
6:53 AM 69.1 °F - 53.1 °F 57% 29.83 in 10.0 mi Variable 4.6 mph - N/A   Clear
7:53 AM 73.0 °F - 53.1 °F 49% 29.85 in 10.0 mi NW 5.8 mph - N/A   Clear
8:53 AM 73.9 °F - 54.0 °F 50% 29.85 in 10.0 mi NNW 6.9 mph 18.4 mph N/A   Clear
9:53 AM 78.1 °F - 54.0 °F 43% 29.83 in 10.0 mi NNW 13.8 mph - N/A   Clear
10:53 AM 82.9 °F 81.9 °F 54.0 °F 37% 29.82 in 10.0 mi NNW 13.8 mph 21.9 mph N/A   Clear
11:53 AM 84.0 °F - 52.0 °F 33% 29.81 in 10.0 mi NNW 19.6 mph 25.3 mph N/A   Clear
12:53 PM 87.1 °F 84.9 °F 53.1 °F 31% 29.80 in 10.0 mi NNW 16.1 mph - N/A   Clear
1:53 PM 89.1 °F 86.7 °F 53.1 °F 29% 29.79 in 10.0 mi NNW 15.0 mph 23.0 mph N/A   Clear
2:53 PM 89.1 °F - 52.0 °F 28% 29.77 in 10.0 mi NW 17.3 mph 23.0 mph N/A   Clear
3:53 PM 88.0 °F 85.7 °F 53.1 °F 30% 29.75 in 10.0 mi WNW 20.7 mph 26.5 mph N/A   Clear
4:53 PM 88.0 °F 85.7 °F 53.1 °F 30% 29.75 in 10.0 mi WNW 18.4 mph 28.8 mph N/A   Clear
5:53 PM 84.9 °F 83.3 °F 54.0 °F 34% 29.76 in 10.0 mi WNW 18.4 mph 27.6 mph N/A   Clear
6:53 PM 81.0 °F 80.5 °F 54.0 °F 39% 29.78 in 10.0 mi WNW 23.0 mph 29.9 mph N/A   Clear
7:53 PM 78.1 °F - 55.0 °F 45% 29.80 in 10.0 mi WNW 12.7 mph 20.7 mph N/A   Clear
8:53 PM 75.9 °F - 55.0 °F 48% 29.81 in 10.0 mi WNW 17.3 mph 24.2 mph N/A   Clear
9:53 PM 75.0 °F - 55.0 °F 50% 29.83 in 10.0 mi WNW 15.0 mph 26.5 mph N/A   Clear
10:53 PM 75.0 °F - 53.1 °F 46% 29.83 in 10.0 mi WNW 11.5 mph 21.9 mph N/A   Overcast
11:53 PM 75.0 °F - 53.1 °F 46% 29.84 in 10.0 mi WNW 13.8 mph 20.7 mph N/A   Overcast